Weather in Bikin

Russia / Khabarovsk Krai     46°49′06″N   134°15′18″E
temp.,
°C
wind,
m/s
gust,
m/s
humid.,
%
clouds,
%
prec.,
mm/h
press.,
hPa
HPBL,
m
27 february, sat
sat2701:00−22s11950 0.0 103620
04:00−23sse11960 0.0 103620
07:00−23se229817 0.0 103620
10:00−19sse249524 0.0 1035184
13:00−13sse358983 0.0 1033389
16:00−9sse368592 0.0 1028510
19:00−10sse3787100 0.0 1025253
22:00−11s3588100 0.0 1023116
28 february, sun
sun2801:00−9ssw51688100 0.0 1022530
04:00−6ssw51392100 0.0 1020555
07:00−3ssw41491100 0.1 1020789
10:00−2sw3786100 0.1 1020523
13:00−1nw3691100 0.4 1022696
16:00−5wnw4886100 1.3 1023849
19:00−9nnw3787100 0.1 1026314
22:00−11wnw2785100 0.1 1028440
1 march, mon
mon101:00−14nw2283100 0.0 103046
04:00−20nw128367 0.0 103220
07:00−22wnw12850 0.0 103420
10:00−18nw13790 0.0 1035261
13:00−14nw246939 0.0 1035762
16:00−12nw466320 0.0 10351225
19:00−18n228425 0.0 103520
22:00−22ene018248 0.0 103520
2 march, tue
tue201:00−23s11772 0.0 103420
04:00−24se117925 0.0 103420
07:00−23e0183100 0.0 103420
10:00−18nnw127698 0.0 1033161
13:00−14nnw358325 0.0 1032720
16:00−13nnw467023 0.0 1031930
19:00−19nnw23830 0.0 103125
22:00−23nnw12810 0.0 103320
3 march, wed
wed301:00−24nnw11830 0.0 103120
04:00−25se11830 0.0 103120
07:00−25se22850 0.0 103120
10:00−20se23840 0.0 1029181
13:00−14se357665 0.0 1025402
16:00−10sse377582 0.0 1021529
19:00−11sse2587100 0.0 1019160
22:00−10sse2796100 0.3 1019279